View from above orbital plane
|
View from above satellite
|
Ground track
|
The orbit data is extracted from the following two-line orbital elements,
1 59U 60013B 21025.48515291 .00000076 00000-0 -14217-4 0 9992
2 59 28.2477 157.6733 0189273 349.7442 9.9277 13.52982336977202
Epoch (UTC): | 25 January 2021 11:38:37 |
Eccentricity: | 0.0189273 |
inclination: | 28.2477° |
perigee height: | 920 km |
apogee height: | 1202 km |
right ascension of ascending node: | 157.6733° |
argument of perigee: | 349.7442° |
revolutions per day: | 13.52982336 |
mean anomaly at epoch: | 9.9277° |
orbit number at epoch: | 97720 |
The dashed part of the orbit path shows where the satellite is in the earth's shadow,
|
|